星链-31085 (STARLINK-31085 )

导读 | 星芒AI

STARLINK-31085 是 SpaceX Starlink 卫星互联网项目中的一颗低轨卫星,属于第 7 批次部署的星链卫星之一。该卫星于 2023 年发射,运行在约 550 公里的近地轨道上,旨在为全球用户提供高速、低延迟的宽带互联网服务。作为 Starlink 卫星群的一部分,它采用先进的相控阵天线和激光通信技术,支持全球范围的网络连接,尤其在偏远地区具有重要意义。该卫星由 SpaceX 自主研发和运营,是其构建全球卫星互联网基础设施的关键组成部分。

基本信息
目录编号:
58609
目录名称:
STARLINK-31085
国际标识:
2023-200W
轨道中心:
EARTH
卫星名称:
星链-31085
卫星全名:
星链-31085 (STARLINK-31085 )
卫星状态:
在轨 (已飞行731 天)
发射日期:
2023-12-19 UTC
国别 :
美国 (US)
星等 :
--
轨道信息
数据来源 国际轨道数据
星历时间: 2025-12-19T10:13:45+0800
19小时前
查看轨道信息
半长轴: 6937.276km
偏心率: 0.0001323
轨道倾角: 43.004°
近地点辐角 264.573°
升交点赤经 247.918°
平近点角 95.496°
近地点: 558.221km
远地点: 560.057km
周期: 95.839分钟
每日圈数: 15.025169
详细信息
固有亮度:
5
最大亮度:
0.3
卫星平台:
Starlink v2.0 mini
覆盖范围:
全球
运营商:
太空探索技术公司
运营商所在国:
美国
制造商(研发单位):
太空探索技术公司
制造商所在国:
美国
使用方式:
暂无
卫星简介
星链(Starlink)计划是由太空探索技术公司(SpaceX)提出的一个巨型低轨卫星互联网星座项目,计划在2019年至2024年间在太空搭建由约1.2万颗卫星组成的“星链”网络,其中1584颗将部署在地球上空550千米处的近地轨道,并从2020年开始工作。该卫星仍在工作。
2D轨道图
3D轨道图
轨道高度分析图
轨道倾角分析图
轨道综合分析图
查看轨道综合分析图